Regional Weather Roundup
Issued by NWS Midland/Odessa, TX

Skip options and go directly to product.
Home | Oldest Version | Previous Version | Current Version | All | Text Only | Save Text | Print | Product List | Glossary Off

Skip product version selection by date and time.   

063
ASUS44 KMAF 301910
RWRMAF
MIDLAND AREA WEATHER ROUNDUP
NATIONAL WEATHER SERVICE MIDLAND TX
200 PM CDT TUE SEP 30 2014

...IN SOUTHWEST TEXAS AND SOUTHEAST NEW MEXICO...

CITY           SKY/WX    TMP DP  RH WIND       PRES   REMARKS
ALPINE         SUNNY     84  55  36 SW7       30.03F
ANDREWS        FAIR      85  57  39 W10       29.87F
ARTESIA        NOT AVBL
BIG SPRING     SUNNY     86  59  39 S12G17    29.88F
CARLSBAD       SUNNY     82  57  42 VRB7      29.87F
DRYDEN           N/A     88  60  38 S8        29.85F
FORT STOCKTON  SUNNY     89  56  32 N8        29.88F
GUAD PASS      SUNNY     77  56  48 W29G37    30.01F
HOBBS          SUNNY     82  52  34 SW14G21   29.90F
MARFA          SUNNY     82  55  39 W6        30.03F
MIDLAND AIRPK  SUNNY     87  58  37 W7        29.86F
MIDLAND INTL   SUNNY     87  59  38 SW12      29.86F
ODESSA         SUNNY     85  60  42 SW12      29.88F
PECOS          SUNNY     87  60  40 NW3       29.85F
PRESIDIO       FAIR      85  58  40 W3        29.90F
SEMINOLE       SUNNY     85  53  32 SW13G21   29.88F
SNYDER         MOSUNNY   82  63  53 S12G21    29.86F
WINK           SUNNY     86  59  39 VRB5      29.85F
$$
...OTHER STATIONS IN TEXAS...

CITY           SKY/WX    TMP DP  RH WIND       PRES   REMARKS
ABILENE        SUNNY     89  58  34 S17G28    29.85F
AMARILLO       SUNNY     82  45  27 SW18G25   29.84F
AUSTIN         PTSUNNY   88  68  51 E3        29.84F
BROWNSVILLE    SUNNY     88  78  72 SW7       29.81F HX 101
CORPUS CHRISTI PTSUNNY   86  72  62 NE8       29.81F
DALLAS FTW     PTSUNNY   90  65  43 S14       29.83F
DEL RIO        SUNNY     86  66  51 SE13      29.82F
EL PASO        MOSUNNY   83  50  31 SW16G24   29.92F
HOUSTON INT    PTSUNNY   86  72  62 VRB7      29.83F
LUBBOCK        MOSUNNY   81  62  52 SW12G17   29.86F
SAN ANGELO     SUNNY     89  60  37 S13G21    29.85F
SAN ANTONIO    PTSUNNY   89  64  43 VRB5      29.85F
WACO           MOSUNNY   88  64  44 SW8       29.83F
WICHITA FALLS  NOT AVBL
$$
...OTHER LOCATIONS IN NEW MEXICO...

CITY           SKY/WX    TMP DP  RH WIND       PRES   REMARKS
ALAMAGORDO     MOSUNNY   79  32  18 SW10G17   29.95F
ALBUQUERQUE    SUNNY     68  31  25 CALM      30.00F
CANNON AFB     SUNNY     76  39  26 W12       29.90F
CLOVIS           N/A     77  39  25 W12G23    29.92F
HOLLOMAN AFB   MOSUNNY   80  31  17 SW9G17    29.93F
ROSWELL        SUNNY     81  41  24 VRB6      29.89F
RUIDOSO        SUNNY     66  39  37 N12       30.08F
SANTA FE       SUNNY     65  29  25 W8G20     30.01F
TRUTH OR CONSE SUNNY     74  36  25 S8        29.96F
TUCUMCARI      SUNNY     78  39  24 W20       29.85F
$$

USA.gov is the U.S. government's official web portal to all federal, state and local government web resources and services.